User: anonymous   Login
Location: Caltech
(34.1382°N, 118.1253°W)
Time: 19:05:47
(UTC-08:00)
Language:

SPOT 1/Viking Rocket - Orbit

View from above orbital plane
View from above orbital plane
View from above satellite
View from above satellite

Ground track
Ground track

The orbit data is extracted from the following two-line orbital elements,

1 16615U 86019C   18048.82735708  .00000031  00000-0  28057-4 0  9994
2 16615  98.5814 118.7286 0012422  46.5067  63.4126 14.31697013674642
Epoch (UTC): 17 February 2018 19:51:23
Eccentricity: 0.0012422
inclination: 98.5814°
perigee height: 777 km
apogee height: 795 km
right ascension of ascending node: 118.7286°
argument of perigee: 46.5067°
revolutions per day: 14.31697013
mean anomaly at epoch: 63.4126°
orbit number at epoch: 67464

The dashed part of the orbit path shows where the satellite is in the earth's shadow,  

DLR